Regional Weather Roundup
Issued by NWS

Home | Current Version | Previous Version | Graphics & Text | Print | Product List | Glossary On
Versions: 1 2 3 4 5 6 7 8 9 10 11 12 13 14 15 16 17 18 19 20 21 22 23 24 25 26 27 28 29 30 31 32 33 34 35 36 37 38 39 40 41 42 43 44 45 46 47 48 49 50
000
ASUS43 KMKX 061800
RWRWI

WISCONSIN REGIONAL WEATHER ROUNDUP
NATIONAL WEATHER SERVICE MILWAUKEE/SULLIVAN WI
100 PM CDT WED MAY 06 2015

NOTE: "FAIR" INDICATES FEW OR NO CLOUDS BELOW 12,000 FEET WITH NO
SIGNIFICANT WEATHER AND/OR OBSTRUCTIONS TO VISIBILITY.

WIZ001-002-006>008-014>016-023>028-061900-
NORTHWEST WISCONSIN

CITY           SKY/WX    TMP DP  RH WIND       PRES   REMARKS
SUPERIOR ARPT  CLOUDY    46  38  75 NE10      30.09F
ASHLAND        CLOUDY    57  54  89 E6        30.10F
6HR MIN TEMP:  52; 6HR MAX TEMP:  57; 6HR PCP:  0.28;

HAYWARD        FAIR      64  53  67 S9        30.08F
6HR MIN TEMP:  52; 6HR MAX TEMP:  64;

SIREN          PTSUNNY   62  53  71 SE10      30.05F
CUMBERLAND     CLOUDY    57  52  82 SE12      30.08F
RICE LAKE      RAIN      59  53  80 E14       30.09F
CHETEK         CLOUDY    61  56  82 E6        30.08F
LADYSMITH      CLOUDY    64  56  75 SE6       30.13F
EAU CLAIRE     NOT AVBL
MENOMONIE      FAIR      62  56  79 E10       30.07F
NEW RICHMOND   CLOUDY    62  58  85 E15       30.04F
OSCEOLA        CLOUDY    61  59  94 SE13G20   30.06F
$$

WIZ003>005-009-010-017-018-061900-
NORTH CENTRAL WISCONSIN

CITY           SKY/WX    TMP DP  RH WIND       PRES   REMARKS
MANITOWISH WTR CLOUDY    55  53  96 SE7       30.15F
ARBOR VITAE    PTSUNNY   57  55  92 SE8       30.15F
WOODRUFF       PTSUNNY   57  55  92 SE8       30.15F
RHINELANDER    PTSUNNY   59  54  83 SE8       30.16F
6HR MIN TEMP:  47; 6HR MAX TEMP:  59; 6HR PCP:  0.02;

EAGLE RIVER    LGT RAIN  57  49  74 SE3       30.16F
LAND O LAKES   CLOUDY    60  47  62 S6        30.18F
PHILLIPS       CLOUDY    57  54  89 SE9       30.13F
TOMAHAWK       CLOUDY    57  54  88 SE5       30.16F
MEDFORD        CLOUDY    62  55  79 SE8       30.13F
MERRILL        CLOUDY    60  56  87 SE8       30.16F
$$

WIZ029-030-035-036-043>047-061900-
CENTRAL WISCONSIN

CITY           SKY/WX    TMP DP  RH WIND       PRES   REMARKS
WAUSAU         PTSUNNY   66  56  70 E9        30.13F
6HR MIN TEMP:  47; 6HR MAX TEMP:  66; 6HR PCP: TRACE;

MOSINEE        MOSUNNY   66  57  72 SE8       30.14F
MARSHFIELD     CLOUDY    67  55  65 SE8       30.11F
6HR MIN TEMP:  51; 6HR MAX TEMP:  68;

STEVENS POINT  FAIR      64  54  68 SE12      30.15F
WAUPACA        PTSUNNY   68  55  63 SE10      30.17S
WAUTOMA        NOT AVBL
WISC RAPIDS    PTSUNNY   68  54  60 SE12      30.13F
6HR MIN TEMP:  52; 6HR MAX TEMP:  70;

CAMP DOUGLAS   NOT AVBL
$$

WIZ011>013-019>022-031-037>040-048>050-061900-
NORTHEAST WISCONSIN

CITY           SKY/WX    TMP DP  RH WIND       PRES   REMARKS
ANTIGO         CLOUDY    58  55  89 SE7       30.18F
SHAWANO        CLOUDY    60  54  80 E6        30.19S
OCONTO         CLOUDY    56  50  79 E6        30.19F
STURGEON BAY   PTSUNNY   55  45  67 E8        30.22F
6HR MIN TEMP:  48; 6HR MAX TEMP:  57;

GREEN BAY      PTSUNNY   67  56  67 VRB5      30.19S
6HR MIN TEMP:  51; 6HR MAX TEMP:  67; 6HR PCP:  0.07;

MANITOWOC      NOT AVBL
APPLETON       PTSUNNY   64  54  68 SE9       30.18F HAZE
CLINTONVILLE   CLOUDY    61  54  77 E5        30.18S
OSHKOSH        PTSUNNY   63  55  75 E5        30.17F
6HR MIN TEMP:  52; 6HR MAX TEMP:  63; 6HR PCP: TRACE;

$$

WIZ032>034-041-042-053>061-061900-
SOUTHWEST WISCONSIN

CITY           SKY/WX    TMP DP  RH WIND       PRES   REMARKS
LA CROSSE      FAIR      73  60  63 VRB6      30.05F
6HR MIN TEMP:  56; 6HR MAX TEMP:  74; 6HR PCP: TRACE;

SPARTA         FAIR      70  57  62 E10       30.09F
VIROQUA        FAIR      66  63  90 E10       30.09F
BOSCOBEL       FAIR      71  59  65 E6        30.08F
6HR MIN TEMP:  54; 6HR MAX TEMP:  72; 6HR PCP:  0.06;

PRAIRIE DU CHI FAIR      68  58  69 E10       30.06F
PLATTEVILLE    FAIR      69  63  81 E12       30.10F
$$

WIZ056-057-062-063-064-067-068-061900-
SOUTH CENTRAL WISCONSIN

CITY           SKY/WX    TMP DP  RH WIND       PRES   REMARKS
REEDSBURG      PTSUNNY   64  58  82 E6        30.12F
BARABOO/DELLS  NOT AVBL
LONE ROCK      NOT AVBL
MINERAL POINT  FAIR      70  61  73 SE9       30.11F
MADISON        PTSUNNY   65  59  81 SE7       30.13F HAZE
6HR MIN TEMP:  49; 6HR MAX TEMP:  65; 6HR PCP:  0.09;

MIDDLETON      FAIR      67  61  83 E5        30.13F
WATERTOWN      PTSUNNY   64  64  97 E7        30.14S FOG
MONROE         FAIR      66  63  88 E7        30.13F FOG
JANESVILLE     PTSUNNY   70  61  73 E12       30.13F
$$

WIZ051-052-058>065-066-070>072-061900-
SOUTHEAST WISCONSIN

CITY           SKY/WX    TMP DP  RH WIND       PRES   REMARKS
MILWAUKEE      CLOUDY    54  50  86 E7        30.19S FOG
6HR MIN TEMP:  45; 6HR MAX TEMP:  54;

WAUKESHA       PTSUNNY   57  54  88 NE6       30.18F FOG
MILWAUKEE/TIMM CLOUDY    54  48  82 E5        30.21S FOG
RACINE         CLOUDY    52  48  86 VRB5      30.21S FOG
6HR MIN TEMP:  45; 6HR MAX TEMP:  54;

BURLINGTON     MOSUNNY   65  58  78 E7        30.17S
KENOSHA        CLOUDY    58  53  84 NE8       30.18F
6HR MIN TEMP:  47; 6HR MAX TEMP:  58;

FOND DU LAC    PTSUNNY   61  55  81 SE6       30.17F
6HR MIN TEMP:  53; 6HR MAX TEMP:  63; 6HR PCP: TRACE;

SHEBOYGAN      CLOUDY    55  52  89 S9        30.20F
6HR MIN TEMP:  47; 6HR MAX TEMP:  56;

WEST BEND      CLOUDY    54  50  87 NE5       30.20S
JUNEAU         PTSUNNY   59  56  90 E7        30.17F FOG
$$

LSZ147-162-061900-
LAKE SUPERIOR

STATION/POSITION TIME  TEMP    WIND        PRES    WAVE
                       AIR SEA DIR/SP/G            HT/PER
                 (UTC) (F)     (DEG/KT/KT) (MB)    (FT/S)
W MID LAKE BUOY  1650   40 36   70/  8/  8 1021.6F   0
DEVILS ISLAND    1700   47     100/  8/  9 1020.7F
PORT WING        1700   43      40/  9/ 10 1019.6F
SAXON HARBOR     1700   60     220/  3/  8 1020.0F
$$

LMZ867-665-643>646-061900-
LAKE MICHIGAN

STATION/POSITION TIME  TEMP    WIND        PRES    WAVE
                       AIR SEA DIR/SP/G            HT/PER
                 (UTC) (F)     (DEG/KT/KT) (MB)    (FT/S)
CHAMBERS ISLAND  1700   50     320/  7/  7 1023.7S
NORTHPORT PIER   1700   46     150/  4/  5 1024.0S
SISTER BAY       1747   60     170/  9/ 11   N/A
KEWAUNEE LAKESHO 1712   48      90/  2/  5 1022.6S
SHEBOYGAN LAKESH 1700   45     160/  6/  7 1023.7F
PORT WASHINGTON  1700   46      40/  4/ 13 1023.4
ATWATER BUOY     1700   43      CALM  /  2 1023.9
MILWAUKEE LAKESH 1700   44      40/  4/  5   N/A
KENOSHA   LAKESH 1700   44      30/  7/  9 1022.7S
$$

TC  - TEMPERATURE IN CELSIUS
VSB - VISIBILITY IN STATUTE MILES
WCI - WIND CHILL INDEX
HX  - HEAT INDEX



USA.gov is the U.S. government's official web portal to all federal, state and local government web resources and services.